Terug naar catalogus

STARLINK-11120

ActiefCommunicatieVLEO
NORAD 60042·PAYLOAD·🇺🇸 United States

Gelanceerd Jun 8, 2024 vanaf Vandenberg Space Force Base

Loading…

Volgende Passages (komende 24 uur)

TLE

VersSource: CelesTrak SupGP

Epoch: Sep 14, 2026, 22:34 UTC

1 60042C 24112E   26257.94076389  .00080476  00000+0  66250-3 0  2573
2 60042  53.1566  53.4324 0001054  82.3976 278.5367 15.69684069    19

Volg STARLINK-11120 in realtime met AllMySat

Download on the App Store